www.pogodaiklimat.ru

Погода и климат >> Архив погоды >> Россия >> Ненецкий АО >> Мыс Константиновский


ПОГОДА на Мысе Константиновском

  • Прогноз погоды на Мысе Константиновском
  • Монитор погоды на Мысе Константиновском

АРХИВ ПОГОДЫ на Мысе Константиновском

Время (UTC), дата Ветер
(напр.,м/с)
 
Видим.   Явления Облачность Т
(С)
Тd
(С)
f
(%)
Тe
(С)
Тes
(С)
Комфортность P
(гПа)
Po
(гПа)
Тmin
(С)
Tmax
(С)
R
(мм)
R24
(мм)
S
(см)
12 17.01 В 10-12
{17}
200 м слаб. снег 10/10 300 м
[Frnb Ns]
-7.7 -8.3 95 -18 -18 982.7 981.9
15 17.01 Ю 4
{13}
4000 м слаб. снег {метель} 10/6 300 м
[Frnb As op]
-6.3 -6.7 97 -13 -13 982.3 981.5 -6.3 3
18 17.01 Ю 5 10 км {снег, метель} 9/5 300 м
[Sc Ac As Cs]
-10.1 -10.7 95 -18 -18 982.9 982.1
21 17.01 Ю 4 10 км 8/3 600 м
[Sc Cs]
-11.9 -13.2 90 -19 -19 983.0 982.2
00 18.01 Ю 3 10 км 8/3 600 м
[Sc Cs]
-11.2 -12.5 90 -17 -17 983.6 982.8
03 18.01 ЮВ 1 10 км 6/0
[Cs]
-16.1 -17.4 90 -19 -19 984.8 984.0 -16.4 0.2 40
06 18.01 СВ 5 10 км 9/9 300 м
[Sc]
-9.1 -9.8 95 -17 -17 986.9 986.1
09 18.01 С 6 20 км 1/1 600 м
[Sc]
-10.8 -12.1 90 -19 -19 989.7 988.9
12 18.01 С 5 20 км 3/0
[Cs]
-10.1 -11.4 90 -18 -18 991.6 990.8
15 18.01 С 4 20 км ясно -10.8 -12.1 90 -18 -18 993.4 992.6 -9.0
18 18.01 З 3 20 км 3/1 600 м
[Sc Cs]
-17.6 -19.5 85 -25 -25 994.5 993.7
21 18.01 ЮЗ 4 20 км ясно -19.3 -21.2 85 -28 -28 995.3 884.5
00 19.01 ЮЗ 4 10 км в посл. час туман ясно -21.1 -23.0 85 -30 -30 996.3 995.5
03 19.01 Ю 3 10 км ясно -20.6 -22.5 85 -28 -28 997.0 996.2 -22.1 40
06 19.01 ЮЗ 6 10 км 8/8 600 м
[Sc]
-16.6 -17.9 90 -27 -27 996.6 995.8
09 19.01 З 10-12
{15}
200 м сильная метель 9/6 300 м
[Sc Ac trans Cs]
-7.7 -8.7 93 -18 -18 995.9 995.1
12 19.01 З 7
{13}
10 км позёмок 9/9 300 м
[Sc]
-4.7 -5.3 96 -13 -13 997.7 996.9
15 19.01 СЗ 5 4000 м слаб. ливневой снег {метель} 10/10 300 м
[Cb cap]
-4.4 -5.0 96 -12 -12 999.1 998.3 -4.3 0.3
18 19.01 З 6 20 км {ливн. осадки, метель} 1/1 600 м
[Sc]
-5.4 -6.1 95 -13 -13 1000.4 999.6
21 19.01 З 5 20 км 3/1 600 м
[Sc Cs]
-6.5 -7.3 94 -14 -14 1001.8 1001.0
00 20.01 З 4 20 км 3/1 600 м
[Sc Cs]
-10.8 -11.4 95 -18 -18 1003.3 1002.5
03 20.01 Ю 5 20 км ясно -15.4 -16.7 90 -24 -24 1004.1 1003.3 -15.7 0.0 40
06 20.01 Ю 5 20 км ясно -16.0 -17.9 85 -25 -25 1004.8 1004.0 -16.2
09 20.01 Ю 4 10 км 9/5 600 м
[Sc Ac trans]
-12.3 -13.6 90 -19 -19 1005.6 1004.8
12 20.01 Ю 4 20 км 9/9 600 м
[Sc]
-11.3 -12.6 90 -18 -18 1005.7 1004.9
15 20.01 Ю 3 10 км 9/9 600 м
[Sc]
-9.2 -9.9 95 -15 -15 1005.4 1004.6 -9.9
18 20.01 ЮЗ 2 10 км 9/4 600 м
[Sc Cs]
-9.3 -10.5 91 -14 -14 1004.5 1003.7
21 20.01 Ю 3 10 км 9/8 600 м
[Sc Ac trans]
-9.9 -11.1 91 -16 -16 1004.1 1003.3
00 21.01 ЮЗ 4 4000 м слаб. снег 9/0
[As trans]
-8.4 -9.1 95 -15 -15 1003.4 1002.6
03 21.01 Ю 6 4000 м слаб. снег 9/0
[As trans]
-11.9 -13.2 90 -21 -21 1003.0 1002.2 -12.0 0.2 40
06 21.01 ЮЗ 6 10 км {снег} 8/8 600 м
[Sc]
-15.7 -17.0 90 -25 -25 1002.7 1001.9 -15.8
09 21.01 ЮЗ 7
{10}
4000 м слаб. снег {метель} 10/10 300 м
[Frnb Ns]
-17.6 -18.8 90 -29 -29 1003.1 1002.3
12 21.01 ЮЗ 7 4000 м слаб. снег {метель} 10/10 300 м
[Frnb Ns]
-20.1 -22.0 85 -32 -32 опасность
обморожения
1002.5 1001.7
15 21.01 ЮЗ 6 4000 м слаб. снег {метель} 9/0
[As trans]
-21.9 -23.8 85 -33 -33 опасность
обморожения
1002.0 1001.2 -11.9 2
18 21.01 ЮЗ 7 4000 м слаб. снег {метель} 9/0
[As trans]
-22.3 -24.2 84 -35 -35 опасность
обморожения
1001.6 1000.8
21 21.01 Ю 7 10 км позёмок {снег} 8/0
[Ac As Cs]
-24.4 -26.9 80 -37 -37 опасность
обморожения
1001.1 1000.3
00 22.01 Ю 7 10 км позёмок {снег} 8/0
[Ac trans Cs]
-25.0 -27.4 80 -38 -38 опасность
обморожения
1000.7 999.9
03 22.01 ЮЗ 6 20 км {метель} 6/0
[Cs]
-25.2 -27.7 80 -38 -38 опасность
обморожения
1000.0 999.2 -25.4 0.7 41
06 22.01 ЮЗ 7 10 км позёмок 8/6 300 м
[Sc Ac trans]
-24.3 -26.8 80 -37 -37 опасность
обморожения
999.6 998.8
09 22.01 ЮЗ 8
{10}
4000 м слаб. ливневой снег {метель} 9/6 300 м
[Cb cap Ac trans]
-22.5 -24.3 85 -36 -36 опасность
обморожения
999.6 998.8
12 22.01 ЮЗ 7 10 км позёмок {ливн. осадки} 8/8 300 м
[Sc]
-22.4 -24.9 80 -35 -35 опасность
обморожения
999.0 998.2
15 22.01 Ю 7 10 км позёмок 9/9 600 м
[Sc]
-23.3 -25.8 80 -36 -36 опасность
обморожения
998.7 997.9 -22.1 0.4
18 22.01 ЮВ 2
{10}
4000 м слаб. ливневой снег {метель} 9/9 300 м
[Cb cap]
-21.6 -23.4 85 -28 -28 999.1 998.3
21 22.01 ЮЗ 3 4000 м слаб. ливневой снег 6/4 300 м
[Cb cap Cs]
-23.4 -25.9 80 -32 -32 опасность
обморожения
999.5 998.7
00 23.01 Ю 4 20 км {ливн. осадки} ясно -27.2 -30.3 75 -38 -38 опасность
обморожения
1000.2 999.4
03 23.01 Ю 2 20 км ясно -29.6 -32.6 75 -37 -37 опасность
обморожения
1000.9 1000.1 -29.7 1 42
06 23.01 ЮЗ 2 200 м переохл. туман ?/? -23.2 -23.8 95 -30 -30 1002.0 1001.2
09 23.01 ЮЗ 3 10 км {туман} 4/1 300 м
[St Cs]
-26.5 -29.0 79 -35 -35 опасность
обморожения
1003.5 1002.7
12 23.01 Ю 3 20 км {туман} 9/0
[Cs]
-27.8 -30.3 79 -37 -37 опасность
обморожения
1004.6 1003.8
15 23.01 Ю 4 20 км 9/0
[Cs]
-27.3 -29.8 79 -38 -38 опасность
обморожения
1005.7 1004.9 -21.3
18 23.01 ЮВ 3 10 км 8/0
[Cs]
-25.6 -28.1 79 -34 -34 опасность
обморожения
1007.0 1006.2
21 23.01 В 3 10 км 8/0
[Cs]
-25.9 -28.4 79 -35 -35 опасность
обморожения
1008.5 1007.7
00 24.01 ЮВ 4 4000 м слаб. ливневой снег 9/5 300 м
[Cb cap Cs]
-24.1 -26.0 84 -34 -34 опасность
обморожения
1010.1 1009.3
03 24.01 Ю 4 4000 м слаб. ливневой снег 6/6 300 м
[Cb cap]
-22.5 -24.3 85 -32 -32 опасность
обморожения
1011.4 1010.6 -27.8 0.3 42
06 24.01 Ю 4 10 км {ливн. осадки} 9/6 300 м
[Sc Cs]
-25.7 -28.1 80 -36 -36 опасность
обморожения
1013.0 1012.2 -25.7
09 24.01 ЮВ 3 20 км 3/1 600 м
[Sc Cs]
-26.1 -28.6 79 -35 -35 опасность
обморожения
1015.1 1014.3

 

Местоположение метеостанции Мыс Константиновский (Ненецкий АО, Россия): широта 68.55 долгота 55.50 высота над уровнем моря 7 м.

В архиве по умолчанию представлена погода на Мысе Константиновском за последнюю неделю. Архивные данные за месяц целиком и за предыдущие месяцы, начиная с января 2011 года, Вы можете получить, выбрав интересующий диапазон дат из раскрывающегося списка и нажав кнопку "Ввод!".


*Определитесь, кто Вы:
робот инопланетянин человек

Внимание! Время в таблицах - всемирное. Для получения местного времени необходимо прибавить поправку, которая равна 3 ч.

Смотрите также архив погоды в соседних городах и на ближайших метеорологических станциях:

Погода в Ходоварихе (Ненецкий АО, Россия) (82 км)
Погода в Варандее (Ненецкий АО, Россия) (106 км)
Погода в Нарьян-Маре (Ненецкий АО, Россия) (145 км)
Погода в Хорей-Вере (Ненецкий АО, Россия) (163 км)
Погода в Сенгейском Шаре (Ненецкий АО, Россия) (173 км)
Погода на Мысе Белый Нос (Ненецкий АО, Россия) (220 км)
Погода в Коткино (Ненецкий АО, Россия) (250 км)
Погода в Бугрино (Ненецкий АО, Россия) (251 км)
Погода в Имени Федорова (Ненецкий АО, Россия) (253 км)
Погода на Колгуевом Острове (Ненецкий АО, Россия) (278 км)

Пояснения к столбцам:

Ветер - указаны скорость ветра в м/с - средняя за 10 мин, порывы в срок и между сроками (в фигурных скобках) и направление, откуда дует ветер: С - северный, СВ - северо-восточный, В - восточный, ЮВ - юго-восточный, Ю - южный, ЮЗ - юго-западный, З - западный, СЗ - северо-западный.
Видимость - горизонтальная дальность видимости в метрах или километрах. При видимости от 1 до 10 км при отсутствии осадков обычно наблюдается дымка, при ухудшении видимости до 1 км и менее - туман. В сухую погоду видимость может ухудшаться дымом, пылью или мглою.
Явления - указаны атмосферные явления, наблюдавшиеся в срок или в последний час перед сроком; фигурными скобками обозначены явления, наблюдавшиеся между сроками (за 1-3 часа до срока); квадратными скобками обозначены град или гололедные отложения с указанием их диаметра в мм.
Облачность - указаны через наклонную черту общая и нижняя облачность в баллах и высота нижней границы облаков в метрах; квадратными скобками обозначены формы облаков: Ci - перистые, Cs - перисто-слоистые, Cc - перисто-кучевые, Ac - высококучевые, As - высокослоистые, Sc - слоисто-кучевые, Ns - слоисто-дождевые, Cu - кучевые, Cb - кучево-дождевые. Подробнее классификацию облаков см. в Атласе облаков (PDF).
T - Температура воздуха - температура, измеренная на высоте 2 м над землей.
Td - Температура точки росы - температура, при понижении до которой содержащийся в воздухе водяной пар достигнет насыщения.
f - Относительная влажность воздуха - влажноcть воздуха, измеренная на высоте 2 м над землей.
Te - Эффективная температура - температура, которую ощущает одетый по сезону человек в тени. Характеристика душности погоды. При расчете учитывается влияние влажности воздуха и скорости ветра на теплоощущения человека.
Tes - Эффективная температура на солнце - температура, которую ощущает человек, с поправкой на солнечный нагрев. Характеристика знойности погоды. Зависит от высоты солнца над горизонтом, облачности и скорости ветра. Ночью, в пасмурную погоду, а также при ветре 12 м/с и более поправка равна нулю.
P - Атмосферное давление - приведенное к уровню моря атмосферное давление.
Po - Атмосферное давление - измеренное на уровне метеостанции атмосферное давление.
Tmin - Минимальная температура - минимум температуры воздуха на высоте 2 м над землей.
Tmax - Максимальная температура - максимум температуры воздуха на высоте 2 м над землей.
R - Количество осадков - Количество выпавших осадков за период времени, мм. При наведении курсора мыши на число - период времени, за который выпало указанное количество осадков.
R24 - Количество осадков - Количество выпавших осадков за 24 часа, мм.
S - Снежный покров - Высота снежного покрова, см. При наведении курсора мыши на число - состояние снежного покрова и степень покрытия местности в баллах.